Location: Ch?enovice
(49.7164°N, 15.2160°E)
Time: 17:49:53
(UTC+00:00)

Nadezhda 1 Rocket - Pass Details

Date: 23 May 2024
Orbit: 942 x 1004 km, 83.0° (Epoch: 12 June)

Event Time Altitude Azimuth Distance (km) Brightness Sun altitude
Rises 01:04:52 0° 346° (NNW) 3,743 7.8 -14.1°
Reaches altitude 10° 01:07:30 10° 341° (NNW) 2,790 7.0 -13.8°
Maximum altitude 01:13:35 47° 270° (W) 1,301 4.4 -13.3°
Enters shadow 01:18:18 17° 203° (SSW) 2,307 5.3 -12.9°
